Wind_Speed
30 30 32 32 29 27 26 23 22 24 25 24 24 24 24 25 26 28 28 27 27 29 30 30 29 29 30 30 30 29 29 29 28 28 28 27 27 26 26 25 24 23 21 20 19 19 18 17 16 15 14 13 13 12 11 10 9 9 9 9 9 7 6
30 31 32 32 32 30 28 23 21 25 26 24 24 24 24 25 25 27 26 25 27 28 29 29 29 29 29 30 30 30 29 29 29 28 28 28 28 27 27 26 25 24 23 21 21 21 21 20 19 17 16 15 14 13 12 11 11 10 9 10 10 9 8
31 31 32 32 33 32 29 24 22 25 27 27 26 26 26 25 23 24 25 25 25 27 29 30 29 29 29 30 30 30 30 30 29 29 28 28 28 27 27 26 26 25 24 23 23 23 22 21 21 20 18 16 15 14 14 13 12 11 10 10 11 11 10
29 30 31 31 32 33 31 27 23 24 27 28 27 27 26 24 23 23 24 25 25 27 28 29 29 29 29 30 30 29 30 30 29 29 28 29 28 28 28 27 26 26 26 26 25 24 23 22 22 22 20 18 17 16 15 14 13 12 12 11 11 11 11
28 29 30 30 31 33 33 27 22 23 26 28 27 27 26 25 24 24 24 25 26 26 27 28 28 29 29 30 30 29 29 29 29 29 29 29 29 29 29 28 27 27 27 27 26 26 26 24 23 23 22 20 19 17 16 16 14 13 13 12 11 11 11
28 29 29 30 31 34 36 31 24 22 23 26 27 26 26 27 27 26 25 25 26 26 28 28 29 29 28 29 30 29 28 28 29 29 29 30 30 30 29 28 27 27 28 28 27 27 27 26 25 24 23 21 20 19 18 17 16 14 14 13 12 12 11
31 31 30 30 31 33 37 35 28 22 20 23 27 27 28 28 28 28 27 26 26 26 28 28 29 28 28 28 29 30 29 28 28 28 29 30 30 30 29 29 28 27 28 28 27 27 27 26 26 26 24 23 23 21 20 19 17 16 16 15 14 13 13
32 33 32 31 31 31 35 36 32 26 21 22 26 29 29 29 29 29 29 28 27 27 27 28 28 28 28 28 29 29 29 28 28 28 29 30 30 30 29 29 28 28 29 29 28 28 28 26 27 27 26 25 24 23 22 21 20 19 18 17 15 14 14
30 33 32 31 31 30 33 37 36 29 22 21 24 28 30 29 29 28 29 29 28 28 28 28 28 28 27 28 28 28 29 29 29 29 29 29 30 30 29 29 29 28 29 28 27 27 28 27 27 27 27 26 25 24 23 22 21 20 20 19 16 14 14
28 31 33 32 32 31 31 34 35 30 25 23 24 27 30 30 28 28 29 30 29 28 28 29 29 28 27 28 28 28 29 29 30 30 30 30 29 29 29 29 28 28 29 29 28 27 27 27 28 27 26 26 26 25 25 24 23 21 21 19 17 15 15
26 29 33 32 31 33 30 30 33 33 28 24 23 25 30 30 29 28 29 30 30 29 29 30 30 29 28 27 28 28 29 29 30 30 30 30 29 29 29 29 28 28 27 28 29 28 27 27 28 28 26 25 26 26 25 24 23 22 21 20 18 16 16
25 27 31 33 32 32 32 30 32 33 30 26 22 23 28 31 30 29 29 30 30 31 31 31 31 30 28 28 29 29 28 29 29 29 29 30 30 29 29 29 28 28 27 27 28 29 28 26 27 27 26 24 25 25 25 25 24 22 21 20 18 17 17
25 24 26 28 28 28 29 30 32 33 30 27 23 22 27 31 31 30 30 30 31 32 32 32 31 30 29 29 29 29 28 28 29 29 28 29 30 29 29 29 28 28 28 28 28 29 29 27 25 25 25 24 24 25 25 25 24 22 22 21 20 18 17
20 22 23 25 27 27 27 29 33 33 29 26 24 23 26 31 33 32 30 30 31 32 33 33 32 31 29 29 29 29 28 28 28 28 28 28 29 30 30 29 29 29 29 28 28 28 28 27 25 24 24 24 24 25 25 24 24 23 22 21 20 19 18
12 16 18 19 23 26 29 33 35 34 29 26 25 24 26 32 35 34 33 32 32 33 34 34 33 32 30 29 29 28 28 28 28 28 28 28 29 29 30 30 30 30 30 29 28 28 27 27 26 24 24 24 25 25 26 25 24 24 23 21 20 19 19
16 18 18 18 17 16 21 28 31 31 29 27 26 25 26 33 37 37 35 34 33 33 34 35 34 33 32 29 28 28 28 28 28 28 27 28 28 29 30 30 30 31 31 30 29 28 28 27 27 25 23 24 25 26 26 26 25 24 22 21 20 19 19
16 16 17 19 17 12 14 20 22 25 28 27 26 24 26 32 38 39 37 35 35 35 35 35 34 34 33 30 28 28 28 28 28 28 27 27 27 28 29 30 30 30 31 31 29 29 29 28 28 26 24 24 25 25 26 25 25 24 22 20 20 20 20
10 9 11 13 12 11 14 18 21 23 25 24 23 24 26 31 38 40 39 38 36 36 36 36 35 34 34 32 31 30 28 28 28 28 27 27 27 28 29 30 30 30 31 31 30 29 30 30 29 27 26 26 26 26 26 25 25 24 21 20 21 21 21
13 11 11 11 11 11 13 18 21 24 24 23 22 23 25 28 35 39 40 40 38 37 37 37 35 35 35 34 33 32 30 28 28 27 27 28 27 28 29 31 31 30 30 30 30 29 30 31 30 28 28 28 27 26 25 25 25 24 22 21 21 22 23
18 16 14 12 11 12 13 16 19 22 24 24 23 23 22 23 28 33 36 37 39 40 39 38 37 36 36 35 35 33 32 30 28 27 27 28 28 28 30 31 32 31 30 30 30 30 30 31 31 30 29 29 28 28 26 26 26 25 22 21 22 23 24
21 20 18 15 12 12 14 16 18 19 21 23 24 25 24 22 23 27 29 34 39 41 40 39 38 37 37 37 36 35 34 32 29 28 28 29 30 29 30 32 32 32 31 30 30 30 30 31 32 31 30 30 29 29 27 27 28 26 22 21 22 23 25
23 22 19 17 14 13 13 16 20 21 21 24 26 27 27 25 24 26 28 32 37 41 41 40 40 39 38 38 38 36 35 34 31 28 28 30 31 30 30 32 34 33 33 32 31 31 30 30 31 31 30 30 30 30 28 27 29 27 22 20 22 24 26
26 23 21 19 17 14 14 16 20 22 24 27 29 30 30 27 26 27 28 30 35 40 42 42 41 39 38 38 39 38 37 35 31 27 28 30 32 31 30 32 34 35 35 33 33 32 31 30 30 30 30 30 30 30 29 28 29 27 23 21 23 25 27
27 24 22 21 18 17 16 17 21 24 26 28 30 31 31 30 29 29 29 30 34 39 42 43 41 39 37 38 39 39 39 36 31 27 27 29 31 31 30 31 33 34 35 34 33 33 32 31 30 30 31 31 30 30 29 28 28 27 24 23 24 25 27
29 26 24 22 20 19 18 19 22 24 25 28 30 31 32 33 32 32 31 30 32 36 41 42 40 37 35 37 40 41 40 36 31 27 26 27 30 31 31 31 31 32 33 33 33 33 32 31 31 31 31 31 31 30 29 28 28 27 26 25 25 26 27
30 27 25 23 21 20 19 19 21 22 24 28 31 32 33 35 35 34 33 30 30 33 39 41 39 36 36 38 41 42 41 36 32 28 26 25 27 29 31 31 31 31 31 31 32 33 32 32 32 32 32 31 31 30 29 29 29 29 27 26 26 27 28
31 28 26 23 21 21 20 20 21 23 26 30 33 35 36 37 38 36 34 32 30 30 34 39 40 39 39 40 42 43 41 37 34 31 27 25 26 28 29 30 30 30 30 30 31 32 33 33 32 32 31 31 32 32 31 29 30 30 29 28 28 28 29
32 30 27 24 22 22 21 21 21 25 29 31 35 38 39 40 41 39 37 35 31 28 31 37 41 42 41 41 43 43 41 37 35 33 31 28 28 29 30 30 30 29 29 29 30 32 32 33 33 32 31 31 32 33 31 30 30 32 31 29 29 29 30
32 30 29 26 24 23 22 22 21 25 30 33 36 39 40 41 43 41 39 36 32 30 32 36 40 42 41 42 43 43 40 38 36 34 32 30 28 28 29 30 30 30 30 31 32 33 33 33 33 33 32 32 31 32 31 31 31 32 32 30 30 30 31
30 30 29 27 25 23 23 22 21 24 28 31 35 38 39 42 44 43 39 36 34 34 34 35 37 41 41 42 44 43 40 37 36 35 32 30 28 28 29 29 30 31 32 32 33 34 34 33 33 33 32 32 31 31 31 31 31 31 32 31 30 31 32
29 29 27 25 22 21 22 22 21 22 24 26 30 34 37 41 44 43 40 38 36 35 35 35 37 39 40 41 43 43 39 37 36 35 32 30 29 30 31 30 30 31 31 31 32 34 34 33 32 32 32 32 31 31 31 31 31 31 31 30 30 31 32
25 25 24 22 20 19 20 21 21 22 22 22 25 28 32 37 40 41 40 38 36 36 35 36 37 38 40 42 44 42 39 37 36 33 32 32 32 33 33 32 32 32 32 30 30 31 31 30 29 29 29 29 29 29 29 29 29 28 28 29 30 31 32
20 19 20 20 18 18 19 20 21 23 24 24 24 27 30 32 34 37 39 37 37 37 37 36 37 39 41 44 44 42 39 37 36 34 33 34 35 34 34 34 33 34 33 32 31 31 30 29 29 28 28 29 29 29 28 28 27 26 26 27 28 30 32
17 15 17 18 18 18 18 20 21 23 26 27 26 27 31 31 31 34 38 38 39 39 37 37 38 41 44 45 44 42 40 38 36 36 36 36 36 35 34 34 33 33 33 33 33 33 33 32 32 31 31 31 32 31 30 29 28 27 27 27 28 30 32
17 15 15 17 16 16 17 19 22 24 27 28 26 26 29 31 31 33 37 40 40 39 37 39 41 44 46 46 44 42 40 39 38 38 38 37 36 34 33 33 33 32 32 33 33 33 33 33 33 32 32 32 32 31 30 30 30 29 29 30 30 30 31
21 19 16 15 14 16 18 20 24 26 27 28 27 26 28 30 29 29 32 37 39 39 39 42 45 47 47 46 45 43 41 41 39 38 37 36 34 32 31 31 31 31 31 31 31 31 31 31 30 30 29 28 28 28 28 28 29 29 30 31 32 32 31
25 23 20 17 18 20 19 21 23 25 27 28 29 29 28 29 30 30 30 33 38 42 43 44 47 48 48 46 45 44 42 40 38 36 34 33 31 30 30 29 29 29 29 28 27 27 27 27 26 26 26 25 25 26 26 26 27 28 29 30 30 30 29
28 26 24 23 22 23 22 22 23 23 25 28 30 31 31 32 33 34 33 34 38 43 46 47 48 49 48 47 45 43 40 37 34 33 32 31 29 28 28 28 28 28 28 26 25 25 25 24 24 24 25 25 25 25 25 26 26 26 27 27 27 27 26
Wind_Direction
219 208 215 227 223 214 212 211 209 213 217 216 213 213 215 217 218 221 222 221 220 221 221 220 218 218 219 219 220 219 218 218 218 217 217 218 220 221 221 221 223 226 226 224 223 223 220 219 221 221 218 215 214 215 219 221 223 223 222 220 220 221 222
210 205 207 218 225 219 211 207 207 212 218 217 215 214 215 217 217 218 219 218 218 221 222 222 220 218 218 219 220 220 220 220 219 219 219 219 220 222 223 222 224 227 229 228 228 228 225 221 221 223 221 220 220 222 224 227 228 228 226 224 223 223 225
207 207 206 213 226 224 212 206 206 210 216 218 216 216 216 217 216 217 217 216 215 218 221 222 221 220 218 218 219 220 220 220 220 220 221 221 221 223 225 224 224 227 229 229 230 231 229 225 223 224 223 222 224 227 230 232 235 236 233 230 227 225 225
207 207 206 211 224 225 214 209 209 210 215 219 220 219 218 218 216 216 217 216 214 216 219 221 221 221 220 219 219 220 219 219 220 220 221 223 223 223 225 225 224 226 228 230 231 232 231 228 225 225 224 223 225 229 233 236 239 243 243 241 237 231 228
206 206 206 206 214 222 219 213 213 213 215 218 220 220 220 219 218 216 216 216 215 215 218 221 222 223 221 220 220 220 219 219 219 220 220 223 224 223 224 225 224 226 228 230 231 233 233 230 227 228 226 225 227 230 235 239 242 247 250 251 248 241 234
208 207 207 205 209 220 221 213 211 213 214 218 220 220 221 220 220 218 216 216 216 215 216 219 222 222 222 221 221 221 220 219 219 219 219 221 224 224 223 224 224 225 228 230 230 233 235 232 230 230 229 227 228 231 235 239 243 247 251 252 250 244 239
214 209 207 205 207 219 221 214 209 208 208 215 219 220 221 222 222 221 219 218 217 216 216 217 219 220 221 220 222 223 222 220 219 219 219 220 223 224 222 224 224 224 227 229 229 230 233 233 231 230 229 229 230 232 235 237 241 246 249 251 250 247 244
215 211 209 205 204 214 222 218 212 207 205 209 215 218 220 222 223 223 222 220 219 217 217 217 218 219 218 218 221 222 223 223 221 221 221 221 223 223 222 223 224 223 226 228 228 229 231 231 231 230 229 229 231 233 235 237 241 246 251 254 255 253 249
213 211 209 207 204 209 219 221 215 210 210 213 216 218 220 223 225 225 226 224 222 220 217 218 220 220 218 218 219 220 221 222 222 222 223 223 223 223 223 223 225 225 226 226 227 229 230 230 231 231 229 228 231 233 235 237 240 245 252 256 259 258 255
212 210 210 208 204 203 213 222 218 214 217 219 220 220 219 222 226 226 228 228 225 223 220 219 221 220 219 217 218 219 219 220 222 222 223 224 224 224 224 223 224 227 228 226 226 228 230 230 230 231 229 228 230 233 234 237 240 245 251 255 258 260 258
211 209 207 207 206 203 209 220 220 219 223 221 220 222 218 219 223 225 227 230 229 227 223 222 222 222 219 217 218 219 218 218 220 221 223 225 226 225 225 224 224 226 228 228 228 228 229 230 230 231 230 228 230 233 235 239 242 246 250 252 254 258 258
205 208 206 204 206 205 206 211 218 223 226 222 221 225 221 217 220 223 226 229 231 229 227 226 225 225 221 218 218 219 219 218 219 221 222 224 225 226 226 226 224 225 227 228 230 230 230 230 231 232 232 229 231 234 237 241 243 245 247 249 252 255 257
188 199 202 202 205 206 207 210 216 221 224 225 226 230 225 217 216 221 224 227 229 229 230 229 229 228 225 221 220 220 220 219 219 221 221 222 224 225 226 226 224 224 225 226 229 232 232 231 232 233 233 231 232 235 238 240 242 243 243 246 251 254 255
174 182 190 197 200 201 203 207 214 219 223 226 229 231 228 219 214 218 222 225 227 228 230 231 231 231 230 226 224 223 221 221 220 221 222 221 222 224 225 225 224 224 225 225 226 231 233 233 233 233 233 232 233 236 238 239 240 241 241 244 250 252 252
159 171 184 197 201 203 204 205 212 220 224 227 231 233 230 220 213 213 216 218 221 224 228 231 232 232 232 230 228 227 224 223 222 222 222 222 221 223 224 225 224 225 226 226 226 228 232 233 233 233 233 233 234 236 239 241 241 242 243 244 247 250 251
165 169 171 176 182 194 206 208 213 222 226 232 236 237 232 222 214 212 214 216 218 221 225 229 231 232 233 232 230 229 228 226 224 223 223 223 222 223 224 225 225 226 227 228 227 227 230 231 231 232 232 234 235 236 239 242 244 244 245 246 246 247 249
176 178 178 178 177 180 195 200 206 217 225 231 234 231 228 223 216 213 214 216 218 220 223 227 230 231 233 234 232 231 230 228 227 225 224 225 225 224 224 225 225 226 228 230 227 227 230 231 230 231 231 233 235 237 239 242 245 246 245 245 246 245 246
189 189 192 195 197 198 198 195 197 210 219 223 224 221 220 221 219 214 212 214 218 220 222 225 228 229 231 233 233 233 232 231 230 228 225 225 226 225 224 225 225 226 228 229 228 227 229 232 232 231 231 233 235 238 240 241 244 245 244 244 245 245 244
224 218 212 211 208 207 205 199 199 207 213 212 210 211 213 216 219 217 214 215 218 219 221 223 226 226 228 230 232 234 234 233 232 230 227 226 226 225 224 224 225 225 226 228 229 228 228 231 233 232 232 233 235 237 239 241 243 244 243 242 243 243 244
234 232 233 230 223 218 211 203 202 207 211 209 203 203 207 211 216 218 217 217 216 217 219 222 224 224 225 227 230 232 233 234 235 232 228 225 226 226 224 224 225 225 225 227 228 228 227 229 232 233 232 233 236 237 238 242 244 243 239 240 240 241 242
241 238 239 239 237 230 216 204 201 205 213 214 206 202 207 210 211 213 216 217 217 216 218 222 224 224 223 224 227 229 231 233 234 233 229 225 225 227 226 224 224 223 223 225 227 228 227 228 231 233 232 233 236 237 237 240 244 243 236 235 238 239 241
246 241 241 243 240 233 220 209 205 205 212 217 213 209 210 212 212 213 214 216 217 216 217 220 223 223 222 222 225 228 229 230 232 232 229 225 225 227 227 224 223 223 222 223 225 227 227 227 230 232 232 232 235 237 236 237 241 242 235 230 234 238 239
248 241 241 243 238 232 225 216 210 210 212 216 217 216 215 214 215 217 215 215 218 218 217 219 222 224 223 222 223 226 227 229 229 229 229 226 225 228 229 226 223 223 222 222 224 226 227 227 228 231 232 232 233 236 236 236 238 240 235 229 230 235 238
252 247 244 242 238 234 230 222 216 215 214 215 217 219 219 218 220 221 219 217 218 219 219 219 221 224 223 221 222 224 226 227 225 224 226 227 227 229 230 228 226 224 223 223 224 226 228 228 229 231 233 233 234 235 236 237 238 238 234 230 228 232 236
254 252 248 243 239 236 231 225 220 218 217 218 218 218 220 222 224 226 224 222 221 220 219 219 221 223 222 220 220 222 224 224 220 219 223 225 226 228 228 228 227 226 225 224 225 227 229 229 229 230 232 234 235 235 235 237 238 236 233 230 229 230 234
256 253 250 247 246 241 232 226 224 221 218 217 216 216 219 223 226 227 228 227 223 220 220 220 221 223 221 218 218 220 222 221 216 216 221 221 221 224 226 227 227 227 226 226 226 227 228 229 230 230 231 233 235 235 234 234 237 237 233 229 230 230 232
258 255 250 248 253 251 241 233 230 222 216 215 215 215 217 222 225 227 227 227 224 221 222 221 220 221 220 217 217 219 221 218 215 216 219 220 220 222 223 224 226 227 227 226 227 228 229 230 232 231 230 232 234 236 234 232 235 238 235 231 230 231 233
260 258 254 252 256 259 253 248 240 225 216 216 217 216 217 220 223 224 224 225 224 222 222 221 220 221 220 217 215 218 220 217 214 216 219 220 222 223 224 225 226 227 228 227 229 230 231 231 232 232 232 232 233 236 236 233 233 236 237 233 230 231 233
258 259 259 258 261 262 259 258 251 233 221 219 219 218 217 219 221 221 222 224 222 218 219 221 222 221 219 215 215 218 219 217 215 217 220 222 225 226 227 228 228 230 230 229 230 232 232 232 233 233 233 233 233 235 237 235 232 234 236 235 232 232 234
256 258 260 261 263 263 261 260 255 240 228 222 220 219 217 218 220 220 220 221 218 214 216 220 221 220 218 214 215 218 219 217 217 218 221 224 226 227 228 229 230 232 232 232 232 233 234 233 232 233 232 232 232 234 236 236 233 232 234 234 234 234 235
254 258 260 262 262 260 258 255 247 236 226 219 218 218 216 217 220 219 218 218 214 210 214 219 219 218 216 213 214 217 218 217 218 220 221 223 224 226 229 231 231 232 232 232 232 233 233 232 231 231 231 232 232 233 235 237 237 235 234 234 234 235 236
253 258 260 261 260 255 253 247 233 221 214 210 213 216 214 214 216 216 214 213 210 207 212 218 218 216 213 212 213 215 217 218 219 219 221 222 225 228 231 232 232 232 231 230 230 230 231 231 230 230 230 231 233 233 236 238 239 239 238 235 233 235 237
246 254 256 258 256 249 246 239 224 211 207 205 205 208 208 208 209 209 206 204 203 205 211 216 215 211 209 209 211 214 217 219 219 219 221 224 227 230 232 233 233 234 233 232 231 232 233 233 234 234 234 234 236 236 238 240 241 241 241 236 233 234 237
235 241 248 253 252 246 239 231 217 205 204 206 204 202 202 202 200 199 198 197 198 203 209 211 208 206 206 206 209 213 217 218 219 220 224 227 230 232 233 234 235 236 236 237 237 238 239 240 241 241 241 241 241 241 241 241 241 241 241 239 236 235 237
216 217 235 247 250 246 236 222 212 204 201 202 202 200 199 199 197 194 194 196 198 202 206 206 203 202 203 205 208 213 217 218 219 221 225 229 231 233 234 235 237 238 239 239 239 240 242 243 244 244 245 245 245 244 242 242 241 241 241 241 240 238 239
213 212 227 234 225 227 233 224 210 202 198 196 195 193 193 194 193 191 192 194 197 201 203 202 200 201 203 205 209 214 217 218 219 222 226 230 232 233 235 235 235 236 237 237 237 238 239 240 241 241 242 243 243 242 241 240 241 241 241 242 243 243 242
213 210 219 221 202 198 216 224 211 199 198 197 191 186 187 189 188 187 190 192 193 197 200 199 199 202 205 207 211 215 217 219 220 221 224 227 227 229 231 231 231 232 233 234 233 233 234 235 236 236 238 238 237 237 238 237 238 240 240 242 244 245 246
205 204 211 215 197 176 179 194 197 192 194 196 192 188 189 191 188 185 188 191 192 195 198 199 201 204 207 210 214 216 215 215 216 217 219 221 221 221 224 227 228 229 230 230 229 228 229 230 231 233 234 234 233 233 235 235 235 237 239 241 244 246 247
Height
3138 3142 3141 3142 3146 3148 3149 3152 3154 3156 3158 3159 3162 3164 3166 3168 3170 3172 3174 3177 3180 3183 3185 3188 3190 3193 3195 3197 3200 3202 3204 3206 3209 3210 3212 3214 3216 3218 3220 3222 3224 3225 3227 3228 3230 3231 3232 3233 3234 3235 3236 3237 3238 3239 3240 3241 3241 3242 3243 3244 3244 3245 3245
3136 3140 3140 3139 3142 3145 3147 3149 3152 3154 3156 3157 3160 3162 3164 3165 3168 3170 3172 3175 3178 3181 3183 3186 3188 3190 3193 3195 3197 3200 3202 3204 3206 3209 3210 3212 3214 3216 3218 3220 3222 3224 3226 3227 3228 3229 3230 3231 3232 3234 3235 3236 3237 3238 3239 3240 3241 3241 3242 3243 3244 3244 3245
3133 3137 3139 3138 3138 3141 3145 3147 3149 3151 3153 3155 3157 3160 3161 3164 3166 3168 3171 3173 3176 3179 3181 3183 3186 3188 3191 3193 3195 3197 3200 3202 3204 3206 3208 3210 3212 3215 3216 3218 3221 3222 3224 3225 3226 3227 3229 3230 3231 3232 3234 3235 3236 3236 3238 3239 3239 3240 3241 3242 3243 3243 3244
3130 3133 3137 3137 3135 3138 3142 3143 3145 3149 3151 3153 3155 3158 3160 3162 3165 3167 3169 3171 3174 3176 3179 3181 3184 3186 3189 3191 3193 3195 3197 3200 3202 3204 3207 3209 3211 3213 3214 3216 3219 3220 3222 3223 3225 3226 3227 3228 3230 3231 3232 3233 3234 3235 3236 3237 3238 3239 3240 3241 3242 3243 3243
3127 3130 3134 3135 3133 3135 3138 3139 3141 3146 3149 3151 3154 3156 3159 3161 3163 3165 3167 3170 3172 3174 3177 3179 3182 3184 3186 3189 3191 3193 3195 3198 3200 3202 3205 3207 3208 3210 3212 3214 3216 3218 3220 3221 3223 3224 3225 3226 3228 3229 3230 3232 3233 3234 3235 3236 3237 3238 3239 3240 3240 3241 3242
3124 3127 3130 3132 3131 3131 3135 3137 3139 3144 3148 3149 3152 3154 3157 3159 3161 3163 3166 3168 3170 3172 3174 3177 3179 3181 3184 3187 3189 3191 3193 3195 3197 3200 3202 3204 3206 3208 3210 3212 3214 3216 3218 3219 3221 3222 3223 3224 3226 3227 3229 3231 3232 3232 3233 3234 3236 3237 3237 3238 3239 3240 3241
3121 3124 3126 3130 3130 3129 3132 3135 3138 3142 3145 3148 3150 3152 3154 3156 3159 3161 3164 3166 3168 3170 3172 3174 3176 3179 3181 3184 3186 3189 3191 3193 3195 3198 3200 3202 3204 3206 3208 3210 3212 3214 3215 3217 3218 3219 3221 3222 3224 3225 3227 3229 3230 3231 3232 3233 3234 3235 3236 3237 3238 3239 3239
3118 3120 3123 3126 3129 3128 3129 3133 3136 3139 3142 3145 3147 3149 3152 3154 3156 3159 3161 3164 3166 3168 3170 3172 3174 3176 3179 3182 3184 3186 3189 3191 3194 3196 3198 3200 3201 3204 3206 3208 3210 3212 3213 3214 3216 3217 3219 3220 3222 3223 3225 3227 3228 3229 3230 3231 3233 3233 3234 3235 3236 3237 3238
3115 3118 3120 3123 3126 3127 3127 3131 3135 3138 3140 3142 3144 3147 3150 3152 3154 3156 3159 3162 3164 3166 3169 3171 3172 3174 3177 3179 3181 3184 3186 3189 3191 3193 3195 3197 3199 3201 3204 3206 3208 3209 3211 3212 3214 3215 3216 3218 3220 3221 3223 3225 3226 3227 3228 3229 3231 3232 3233 3234 3235 3236 3236
3112 3115 3117 3120 3124 3126 3126 3128 3133 3136 3137 3139 3143 3145 3147 3149 3152 3154 3157 3159 3162 3164 3167 3169 3170 3172 3174 3177 3179 3181 3184 3186 3188 3191 3193 3195 3197 3199 3201 3203 3205 3207 3208 3210 3212 3213 3214 3216 3217 3219 3220 3222 3223 3225 3226 3227 3229 3230 3231 3232 3233 3234 3235
3110 3112 3115 3118 3121 3124 3126 3127 3129 3133 3134 3137 3140 3143 3145 3147 3150 3152 3154 3157 3160 3162 3165 3166 3168 3170 3172 3175 3177 3179 3181 3183 3186 3188 3190 3192 3195 3197 3199 3201 3203 3205 3206 3208 3209 3211 3212 3213 3215 3216 3218 3220 3221 3223 3224 3226 3227 3229 3229 3231 3232 3233 3233
3108 3110 3112 3115 3118 3121 3124 3126 3127 3130 3133 3135 3138 3141 3142 3145 3147 3149 3152 3155 3158 3160 3162 3164 3166 3168 3170 3173 3174 3176 3179 3181 3183 3185 3187 3190 3192 3195 3197 3199 3201 3202 3204 3206 3207 3208 3210 3211 3212 3214 3216 3218 3219 3220 3222 3224 3225 3226 3228 3229 3230 3231 3231
3104 3108 3111 3114 3117 3120 3124 3126 3126 3128 3131 3133 3136 3138 3140 3142 3145 3147 3150 3153 3155 3157 3159 3162 3163 3165 3168 3170 3172 3174 3176 3178 3180 3183 3185 3187 3190 3192 3194 3196 3198 3200 3201 3203 3205 3206 3207 3209 3210 3212 3213 3215 3217 3218 3220 3221 3223 3224 3225 3227 3227 3229 3230
3104 3107 3110 3113 3115 3118 3121 3124 3124 3126 3128 3131 3133 3135 3137 3139 3142 3144 3147 3150 3153 3155 3157 3159 3161 3163 3165 3168 3170 3172 3174 3176 3178 3180 3183 3185 3187 3189 3191 3194 3196 3197 3199 3200 3202 3204 3205 3207 3208 3210 3211 3213 3214 3216 3217 3219 3220 3221 3223 3224 3225 3226 3228
3104 3107 3109 3111 3113 3116 3118 3120 3121 3123 3126 3128 3130 3132 3134 3136 3138 3141 3144 3147 3150 3152 3154 3156 3158 3161 3163 3165 3167 3170 3172 3174 3176 3178 3180 3182 3185 3187 3189 3191 3193 3195 3196 3197 3200 3201 3203 3205 3206 3207 3209 3210 3212 3213 3214 3216 3217 3219 3220 3222 3224 3225 3226
3100 3102 3104 3107 3109 3112 3115 3117 3119 3121 3123 3125 3127 3129 3131 3132 3135 3138 3141 3144 3146 3149 3151 3153 3156 3158 3160 3162 3165 3167 3169 3171 3173 3175 3177 3179 3182 3184 3186 3188 3190 3192 3193 3195 3197 3199 3201 3202 3203 3205 3206 3208 3209 3211 3212 3213 3215 3216 3218 3220 3221 3223 3223
3099 3100 3102 3104 3106 3108 3111 3113 3115 3117 3119 3121 3123 3126 3127 3129 3132 3135 3138 3141 3143 3146 3148 3151 3153 3155 3157 3160 3162 3164 3166 3169 3171 3173 3175 3177 3179 3181 3183 3185 3187 3189 3191 3192 3195 3197 3198 3200 3201 3203 3204 3205 3206 3208 3209 3210 3212 3213 3215 3217 3219 3220 3221
3099 3101 3103 3104 3105 3106 3108 3109 3111 3114 3116 3119 3121 3122 3124 3126 3129 3132 3134 3137 3140 3143 3145 3148 3150 3153 3155 3157 3160 3161 3164 3166 3168 3170 3172 3174 3176 3178 3181 3183 3184 3186 3188 3189 3192 3194 3196 3197 3198 3200 3202 3203 3204 3205 3206 3208 3209 3210 3213 3215 3217 3218 3219
3096 3098 3100 3101 3102 3104 3105 3105 3107 3110 3113 3116 3118 3119 3121 3124 3126 3129 3132 3135 3138 3140 3142 3144 3147 3150 3152 3154 3156 3159 3161 3163 3165 3167 3170 3172 3174 3176 3178 3180 3181 3183 3185 3187 3189 3191 3193 3194 3196 3198 3199 3200 3201 3203 3204 3205 3206 3208 3210 3212 3214 3215 3216
3094 3096 3097 3098 3099 3100 3102 3103 3105 3107 3110 3112 3115 3117 3119 3121 3123 3126 3129 3132 3134 3136 3139 3141 3144 3147 3149 3151 3154 3156 3158 3161 3163 3165 3167 3169 3171 3173 3175 3177 3178 3181 3183 3185 3186 3188 3190 3192 3193 3195 3196 3198 3199 3200 3202 3203 3204 3205 3208 3210 3211 3213 3213
3091 3092 3094 3095 3097 3098 3099 3101 3103 3105 3107 3109 3112 3115 3116 3118 3121 3123 3126 3128 3130 3133 3135 3138 3141 3144 3146 3148 3151 3153 3155 3158 3160 3162 3164 3166 3168 3169 3172 3174 3175 3178 3180 3182 3183 3185 3187 3189 3190 3192 3193 3195 3196 3198 3200 3201 3201 3203 3205 3207 3209 3210 3211
3088 3089 3091 3092 3094 3095 3096 3098 3100 3102 3104 3106 3109 3111 3113 3115 3118 3120 3123 3125 3127 3130 3132 3135 3137 3140 3143 3146 3148 3150 3153 3155 3157 3159 3161 3163 3165 3167 3169 3170 3172 3174 3176 3179 3180 3182 3184 3186 3187 3189 3190 3192 3194 3195 3197 3198 3199 3200 3203 3205 3206 3207 3208
3084 3086 3088 3089 3091 3092 3093 3095 3097 3099 3101 3103 3105 3108 3110 3114 3116 3118 3120 3122 3124 3126 3129 3131 3134 3137 3140 3143 3145 3147 3150 3152 3154 3156 3158 3160 3162 3164 3166 3167 3169 3171 3173 3175 3177 3179 3181 3183 3185 3186 3187 3189 3191 3192 3194 3196 3197 3198 3200 3202 3203 3204 3204
3081 3083 3084 3086 3088 3089 3090 3091 3093 3095 3097 3099 3102 3105 3108 3111 3113 3115 3117 3119 3121 3123 3126 3128 3131 3134 3137 3140 3142 3144 3146 3149 3151 3153 3155 3157 3159 3161 3163 3164 3166 3168 3170 3172 3174 3176 3178 3180 3182 3184 3185 3186 3188 3189 3191 3193 3194 3196 3198 3199 3200 3201 3202
3078 3080 3081 3083 3084 3085 3086 3088 3090 3092 3095 3097 3099 3102 3105 3107 3109 3111 3114 3116 3118 3120 3123 3126 3128 3131 3135 3137 3139 3141 3143 3146 3149 3151 3152 3154 3156 3158 3160 3162 3164 3166 3168 3170 3172 3174 3176 3177 3179 3180 3182 3183 3185 3187 3189 3190 3191 3193 3195 3196 3198 3199 3199
3075 3076 3078 3080 3081 3082 3083 3085 3087 3088 3091 3093 3096 3099 3101 3103 3105 3107 3110 3113 3116 3117 3120 3123 3126 3129 3132 3134 3136 3138 3140 3143 3146 3148 3150 3152 3154 3156 3157 3159 3161 3163 3165 3167 3169 3171 3172 3174 3175 3177 3179 3180 3182 3183 3185 3187 3188 3190 3192 3194 3195 3196 3197
3071 3073 3075 3076 3078 3079 3080 3081 3082 3084 3086 3089 3092 3095 3097 3099 3101 3104 3107 3110 3112 3115 3118 3121 3123 3125 3128 3130 3133 3135 3138 3140 3143 3145 3147 3149 3151 3153 3155 3157 3159 3160 3163 3165 3166 3168 3169 3171 3172 3174 3176 3177 3178 3180 3182 3184 3186 3186 3188 3191 3192 3193 3194
3069 3070 3071 3073 3075 3075 3076 3077 3078 3079 3081 3084 3087 3090 3093 3095 3097 3100 3103 3106 3110 3114 3116 3118 3119 3122 3124 3127 3130 3132 3135 3138 3140 3142 3145 3146 3148 3151 3152 3154 3156 3158 3160 3162 3163 3164 3166 3168 3169 3171 3173 3174 3175 3176 3178 3181 3183 3183 3185 3188 3189 3191 3191
3066 3067 3068 3070 3071 3072 3073 3073 3074 3076 3078 3080 3082 3086 3088 3090 3093 3096 3100 3104 3108 3111 3111 3113 3116 3118 3121 3124 3127 3129 3132 3135 3137 3139 3141 3143 3146 3148 3150 3152 3154 3155 3157 3159 3160 3161 3163 3164 3166 3168 3169 3171 3173 3174 3175 3178 3179 3181 3182 3184 3186 3188 3189
3063 3064 3065 3067 3068 3069 3070 3070 3071 3072 3074 3076 3078 3081 3084 3086 3089 3093 3097 3101 3104 3105 3106 3109 3113 3115 3118 3121 3124 3126 3129 3132 3135 3137 3139 3141 3143 3145 3147 3149 3151 3152 3154 3156 3157 3158 3159 3161 3163 3165 3166 3168 3170 3171 3173 3174 3176 3177 3179 3181 3183 3185 3186
3060 3061 3062 3063 3065 3066 3066 3067 3068 3069 3071 3073 3074 3076 3079 3081 3085 3089 3093 3096 3098 3100 3103 3106 3109 3112 3115 3118 3121 3123 3126 3129 3132 3134 3136 3138 3140 3142 3144 3146 3148 3149 3151 3153 3154 3155 3156 3158 3160 3162 3164 3165 3167 3169 3170 3171 3173 3175 3176 3178 3180 3182 3183
3058 3058 3059 3060 3061 3062 3063 3063 3065 3067 3068 3070 3071 3073 3076 3078 3081 3084 3087 3090 3094 3097 3100 3103 3106 3109 3112 3115 3118 3120 3123 3126 3129 3131 3133 3135 3137 3139 3141 3143 3145 3146 3148 3150 3152 3153 3154 3156 3158 3160 3162 3163 3165 3167 3168 3169 3171 3172 3174 3176 3177 3178 3180
3056 3057 3057 3057 3058 3059 3060 3060 3062 3064 3065 3067 3068 3070 3073 3075 3077 3080 3083 3086 3090 3093 3096 3099 3103 3106 3109 3111 3114 3117 3121 3124 3126 3128 3130 3131 3133 3135 3138 3140 3142 3143 3145 3147 3149 3151 3152 3154 3156 3158 3160 3161 3163 3165 3166 3168 3169 3170 3171 3172 3174 3175 3176
3056 3056 3055 3055 3056 3056 3057 3058 3060 3061 3063 3064 3066 3067 3070 3072 3074 3076 3079 3083 3086 3089 3093 3096 3100 3103 3105 3108 3111 3115 3118 3121 3123 3125 3126 3128 3130 3132 3134 3137 3139 3140 3142 3145 3147 3148 3150 3152 3154 3155 3157 3159 3160 3162 3164 3165 3166 3168 3169 3169 3171 3172 3173
3055 3055 3054 3054 3054 3054 3054 3056 3058 3059 3060 3062 3064 3065 3067 3070 3072 3074 3077 3080 3082 3086 3090 3093 3096 3099 3102 3105 3109 3112 3115 3117 3120 3121 3123 3125 3127 3129 3132 3134 3136 3137 3139 3141 3143 3145 3147 3149 3151 3152 3154 3155 3157 3159 3161 3162 3163 3165 3166 3166 3167 3169 3170
3053 3053 3053 3053 3053 3052 3051 3053 3055 3056 3058 3059 3061 3063 3065 3067 3070 3072 3074 3076 3079 3083 3087 3090 3093 3096 3099 3102 3105 3108 3111 3114 3116 3118 3120 3122 3124 3127 3129 3131 3133 3134 3136 3138 3140 3142 3144 3145 3147 3149 3150 3152 3153 3155 3157 3158 3160 3161 3162 3163 3163 3165 3167
3050 3051 3052 3052 3051 3049 3048 3050 3052 3054 3056 3058 3059 3060 3062 3065 3067 3070 3072 3074 3076 3080 3084 3087 3090 3093 3096 3099 3102 3105 3108 3111 3113 3115 3118 3120 3122 3124 3126 3128 3130 3131 3132 3135 3137 3138 3140 3142 3143 3145 3147 3148 3150 3152 3153 3155 3156 3157 3158 3159 3160 3162 3164
3046 3048 3049 3049 3048 3046 3045 3046 3049 3052 3055 3056 3057 3058 3059 3061 3063 3066 3068 3071 3074 3077 3080 3084 3087 3090 3093 3096 3099 3102 3105 3108 3110 3112 3115 3117 3119 3121 3122 3124 3126 3128 3129 3132 3134 3135 3137 3139 3140 3142 3143 3145 3147 3148 3150 3151 3152 3154 3155 3156 3158 3159 3161